Tracking 19792 objects as of 17-Jul-2019
HD Live streaming from Space Station
objects crossing your sky now

FENGYUN 1C DEB

Track FENGYUN 1C DEB now!
10-day predictions


NORAD ID: 32363
Int'l Code: 1999-025CZG
Perigee: 496.4 km
Apogee: 812.9 km
Inclination: 98.4 °
Period: 97.7 minutes
Semi major axis: 7025 km
RCS: 0.013 m2 (small)
Launch date: May 10, 1999
Source: People's Republic of China (PRC)
Launch site: Taiyaun Space Center, China (TSC)

Note: This is SATELLITE DEBRIS
aabbcc
Your satellite tracking list
Your tracking list is empty




NASA's NSSDC Master Catalog

Two Line Element Set (TLE):
1 32363U 99025CZG 19196.22125538  .00000953  00000-0  10309-3 0  9999
2 32363  98.4032 343.0248 0225265 183.8412 176.1076 14.74261728629094
Source of the keplerian elements: AFSPC